Laconia, New Hampshire, United States (03246)
Lat: 43.53N, Lon: 71.47W
Wx Zone: NHZ009
Local Info
Past Weather Observations for Saturday, November 15, 2014

NOTE: This archive is for the closest National Weather Service station to Laconia. Information may differ from the station used for current weather conditions.

Click here for Long-term Archive

Time Weather Temperature Dewpoint Humidity Pressure Winds Precip Visibility
23:55
Clear
25°F / -4°C 18°F / -8°C 74% 30.27 in
(1025 mb)
SSW 4.6 mph
(SSW 7 kph)
- 10SM
23:35
Clear
21°F / -6°C 14°F / -10°C 74% 30.27 in
(1025 mb)
Calm - 10SM
23:15
Clear
25°F / -4°C 16°F / -9°C 69% 30.27 in
(1025 mb)
Calm - 10SM
22:55
Clear
23°F / -5°C 16°F / -9°C 74% 30.27 in
(1025 mb)
SSW 3.5 mph
(SSW 6 kph)
- 10SM
22:35
Clear
25°F / -4°C 18°F / -8°C 74% 30.27 in
(1025 mb)
SSW 3.5 mph
(SSW 6 kph)
- 10SM
22:15
Clear
23°F / -5°C 14°F / -10°C 68% 30.27 in
(1025 mb)
Calm - 10SM
21:55
Clear
25°F / -4°C 16°F / -9°C 69% 30.27 in
(1025 mb)
Calm - 10SM
21:35
Clear
25°F / -4°C 16°F / -9°C 69% 30.27 in
(1025 mb)
Calm - 10SM
21:15
Clear
27°F / -3°C 16°F / -9°C 64% 30.27 in
(1025 mb)
SSW 4.6 mph
(SSW 7 kph)
- 10SM
20:55
Clear
27°F / -3°C 16°F / -9°C 64% 30.27 in
(1025 mb)
SSW 4.6 mph
(SSW 7 kph)
- 10SM
20:35
Clear
27°F / -3°C 14°F / -10°C 59% 30.24 in
(1024 mb)
SSW 3.5 mph
(SSW 6 kph)
- 10SM
20:15
Clear
27°F / -3°C 14°F / -10°C 59% 30.24 in
(1024 mb)
SSW 3.5 mph
(SSW 6 kph)
- 10SM
19:55
Clear
27°F / -3°C 14°F / -10°C 59% 30.24 in
(1024 mb)
Calm - 10SM
19:35
Clear
25°F / -4°C 14°F / -10°C 63% 30.24 in
(1024 mb)
Calm - 10SM
19:15
Clear
27°F / -3°C 14°F / -10°C 59% 30.24 in
(1024 mb)
Calm - 10SM
18:55
Clear
27°F / -3°C 12°F / -11°C 54% 30.24 in
(1024 mb)
Calm - 10SM
18:35
Clear
27°F / -3°C 12°F / -11°C 54% 30.24 in
(1024 mb)
SSW 3.5 mph
(SSW 6 kph)
- 10SM
18:15
Clear
28°F / -2°C 12°F / -11°C 51% 30.21 in
(1023 mb)
Calm - 10SM
17:55
Clear
28°F / -2°C 12°F / -11°C 51% 30.21 in
(1023 mb)
Calm - 10SM
17:35
Clear
28°F / -2°C 10°F / -12°C 47% 30.21 in
(1023 mb)
Calm - 10SM
17:15
Clear
30°F / -1°C 9°F / -13°C 40% 30.21 in
(1023 mb)
Calm - 10SM
16:55
Clear
34°F / 1°C 9°F / -13°C 35% 30.21 in
(1023 mb)
Calm - 10SM
16:35
Clear
34°F / 1°C 9°F / -13°C 35% 30.21 in
(1023 mb)
NW 3.5 mph
(NW 6 kph)
- 10SM
16:15
Clear
34°F / 1°C 9°F / -13°C 35% 30.18 in
(1022 mb)
NW 4.6 mph
(NW 7 kph)
- 10SM
15:55
Clear
36°F / 2°C 9°F / -13°C 32% 30.18 in
(1022 mb)
NW 4.6 mph
(NW 7 kph)
- 10SM
15:35
Clear
36°F / 2°C 9°F / -13°C 32% 30.18 in
(1022 mb)
NW 8.1 mph
(NW 13 kph)
- 10SM
15:15
Clear
36°F / 2°C 9°F / -13°C 32% 30.18 in
(1022 mb)
WNW 9.2 mph
(WNW 15 kph)
- 10SM
14:55
Clear
36°F / 2°C 10°F / -12°C 35% 30.18 in
(1022 mb)
W 4.6 mph
(W 7 kph)
- 10SM
14:35
Clear
36°F / 2°C 10°F / -12°C 35% 30.15 in
(1021 mb)
W 6.9 mph
(W 11 kph)
- 10SM
14:15
Clear
36°F / 2°C 10°F / -12°C 35% 30.18 in
(1022 mb)
NW 6.9 mph
(NW 11 kph)
- 10SM
13:55
Clear
36°F / 2°C 12°F / -11°C 38% 30.15 in
(1021 mb)
SSW 4.6 mph
(SSW 7 kph)
- 10SM
13:35
Clear
36°F / 2°C 10°F / -12°C 35% 30.18 in
(1022 mb)
NW 5.8 mph
(NW 9 kph)
- 10SM
13:15
Clear
36°F / 2°C 10°F / -12°C 35% 30.15 in
(1021 mb)
W 6.9 mph
(W 11 kph)
- 10SM
12:55
Clear
36°F / 2°C 10°F / -12°C 35% 30.18 in
(1022 mb)
NW 6.9 mph
(NW 11 kph)
- 10SM
12:35
Clear
34°F / 1°C 10°F / -12°C 38% 30.18 in
(1022 mb)
NW 10.4 mph
(NW 17 kph)
- 10SM
12:15
Clear
34°F / 1°C 12°F / -11°C 41% 30.18 in
(1022 mb)
NW 9.2 mph
(NW 15 kph)
- 10SM
11:55
Clear
34°F / 1°C 12°F / -11°C 41% 30.18 in
(1022 mb)
W 12.7 mph
(W 20 kph)
- 10SM
11:35
Clear
32°F / 0°C 12°F / -11°C 44% 30.18 in
(1022 mb)
NW 12.7 mph
(NW 20 kph)
- 10SM
11:15
Partly Cloudy
32°F / 0°C 12°F / -11°C 44% 30.18 in
(1022 mb)
NW 12.7 mph
(NW 20 kph)
- 10SM
10:55
Partly Cloudy
30°F / -1°C 12°F / -11°C 47% 30.21 in
(1023 mb)
SSW 9.2 mph
(SSW 15 kph)
- 10SM
10:35
Mostly Cloudy
30°F / -1°C 12°F / -11°C 47% 30.21 in
(1023 mb)
WNW 10.4 mph
(WNW 17 kph)
- 10SM
10:15
Partly Cloudy
30°F / -1°C 12°F / -11°C 47% 30.21 in
(1023 mb)
WNW 11.5 mph
(WNW 19 kph)
- 10SM
09:55
Overcast
28°F / -2°C 12°F / -11°C 51% 30.21 in
(1023 mb)
NW 9.2 mph
(NW 15 kph)
- 10SM
09:35
Mostly Cloudy
28°F / -2°C 12°F / -11°C 51% 30.21 in
(1023 mb)
W 5.8 mph
(W 9 kph)
- 10SM
09:15
Partly Cloudy
28°F / -2°C 12°F / -11°C 51% 30.18 in
(1022 mb)
W 15 mph
(W 24 kph)
- 10SM
08:55
Partly Cloudy
28°F / -2°C 12°F / -11°C 51% 30.18 in
(1022 mb)
WNW 5.8 mph
(WNW 9 kph)
- 10SM
08:35
Clear
28°F / -2°C 14°F / -10°C 55% 30.18 in
(1022 mb)
W 8.1 mph
(W 13 kph)
- 10SM
08:15
Clear
27°F / -3°C 16°F / -9°C 64% 30.18 in
(1022 mb)
WNW 6.9 mph
(WNW 11 kph)
- 10SM
07:55
Clear
27°F / -3°C 16°F / -9°C 64% 30.18 in
(1022 mb)
WNW 5.8 mph
(WNW 9 kph)
- 10SM
07:35
Clear
27°F / -3°C 16°F / -9°C 64% 30.18 in
(1022 mb)
W 8.1 mph
(W 13 kph)
- 10SM
07:15
Clear
25°F / -4°C 16°F / -9°C 69% 30.15 in
(1021 mb)
SSW 8.1 mph
(SSW 13 kph)
- 10SM
06:55
Clear
25°F / -4°C 16°F / -9°C 69% 30.15 in
(1021 mb)
SSW 4.6 mph
(SSW 7 kph)
- 10SM
06:35
Clear
27°F / -3°C 14°F / -10°C 59% 30.15 in
(1021 mb)
SSW 5.8 mph
(SSW 9 kph)
- 10SM
06:15
Clear
25°F / -4°C 16°F / -9°C 69% 30.15 in
(1021 mb)
W 4.6 mph
(W 7 kph)
- 10SM
05:55
Clear
25°F / -4°C 16°F / -9°C 69% 30.12 in
(1020 mb)
W 5.8 mph
(W 9 kph)
- 10SM
05:35
Clear
27°F / -3°C 16°F / -9°C 64% 30.12 in
(1020 mb)
W 6.9 mph
(W 11 kph)
- 10SM
05:15
Clear
27°F / -3°C 16°F / -9°C 64% 30.12 in
(1020 mb)
SSW 6.9 mph
(SSW 11 kph)
- 10SM
04:55
Clear
27°F / -3°C 16°F / -9°C 64% 30.12 in
(1020 mb)
SSW 5.8 mph
(SSW 9 kph)
- 10SM
04:35
Clear
27°F / -3°C 16°F / -9°C 64% 30.12 in
(1020 mb)
W 4.6 mph
(W 7 kph)
- 10SM
04:15
Clear
27°F / -3°C 16°F / -9°C 64% 30.12 in
(1020 mb)
SSW 8.1 mph
(SSW 13 kph)
- 10SM
03:55
Clear
27°F / -3°C 16°F / -9°C 64% 30.09 in
(1019 mb)
W 6.9 mph
(W 11 kph)
- 10SM
03:35
Clear
27°F / -3°C 16°F / -9°C 64% 30.09 in
(1019 mb)
W 5.8 mph
(W 9 kph)
- 10SM
03:15
Clear
27°F / -3°C 16°F / -9°C 64% 30.09 in
(1019 mb)
SSW 4.6 mph
(SSW 7 kph)
- 10SM
02:55
Clear
27°F / -3°C 18°F / -8°C 69% 30.09 in
(1019 mb)
W 6.9 mph
(W 11 kph)
- 10SM
02:35
Clear
27°F / -3°C 18°F / -8°C 69% 30.09 in
(1019 mb)
W 5.8 mph
(W 9 kph)
- 10SM
02:15
Clear
27°F / -3°C 18°F / -8°C 69% 30.06 in
(1018 mb)
W 5.8 mph
(W 9 kph)
- 10SM
01:55
Clear
27°F / -3°C 16°F / -9°C 64% 30.06 in
(1018 mb)
SSW 8.1 mph
(SSW 13 kph)
- 10SM
01:35
Clear
28°F / -2°C 16°F / -9°C 59% 30.06 in
(1018 mb)
W 5.8 mph
(W 9 kph)
- 10SM
01:15
Clear
28°F / -2°C 16°F / -9°C 59% 30.06 in
(1018 mb)
SSW 5.8 mph
(SSW 9 kph)
- 10SM
00:55
Clear
28°F / -2°C 16°F / -9°C 59% 30.06 in
(1018 mb)
W 6.9 mph
(W 11 kph)
- 10SM
00:35
Clear
28°F / -2°C 16°F / -9°C 59% 30.06 in
(1018 mb)
W 5.8 mph
(W 9 kph)
- 10SM
00:15
Clear
28°F / -2°C 16°F / -9°C 59% 30.06 in
(1018 mb)
W 4.6 mph
(W 7 kph)
- 10SM
Time Weather Temperature Dewpoint Humidity Pressure Winds Precip Visibility


Weather for websites

WeatherForYou.com, LLC is not responsible for any damages or problems caused by this service. Current weather conditions are obtained from the closest station including government and personal stations which may have varying degrees of accuracy. Weather forecasts are derived from the NOAA NDFD. Like all things, this site belongs to Jesus Christ... He just trusts me to maintain it. If you have any questions or comments email webmaster@weatherforyou.com

Copyright © 2014, WeatherForYou.com LLC. All rights reserved.